Terminal Aerodrome Forecast
Issued by NWS Cleveland, OH

Home | Current Version | Previous Version | Graphics & Text | Print | Product List | Glossary On
Versions: 1 2 3 4 5 6 7 8 9 10 11 12 13 14 15 16 17 18 19 20 21 22 23 24 25 26 27 28
000
FTUS41 KCLE 150800 AAA
TAFCLE
TAF AMD
KCLE 150854Z 1509/1612 00000KT P6SM FEW100 BKN250
     FM151400 20008KT P6SM SCT100 BKN250
     FM151900 20008KT P6SM BKN060 OVC100
     FM152100 22008KT P6SM -RA OVC045
     FM152300 22008KT 4SM -RA BR OVC030
     FM160500 30006KT 4SM BR OVC012
     FM160900 30006KT P6SM OVC015=

USA.gov is the U.S. government's official web portal to all federal, state and local government web resources and services.